Location: Bishopstone
(51.0167°N, 1.9000°W)
Time: 12:15:38
(UTC+00:00)

Cosmos 2333 Rocket - Pass Details

Date: 16 September 2019
Orbit: 840 x 862 km, 70.8° (Epoch: 21 October)

Event Time Altitude Azimuth Distance (km) Brightness Sun altitude
Rises 19:54:20 0° 326° (NNW) 3,421 6.4 -15.1°
Reaches altitude 10° 19:56:51 10° 322° (NW) 2,485 5.6 -15.5°
Maximum altitude 20:02:19 50° 249° (WSW) 1,083 3.0 -16.3°
Drops below altitude 10° 20:07:48 10° 175° (S) 2,483 4.3 -17.0°
Enters shadow 20:08:30 - 174° (S) 2,741 4.5 -17.1°
